Regional Weather Roundup
Issued by NWS

Home | Current Version | Previous Version | Graphics & Text | Print | Product List | Glossary On
Versions: 1 2 3 4 5 6 7 8 9 10 11 12 13 14 15 16 17 18 19 20 21 22 23 24 25 26 27
000
ASUS45 KSLC 230710
RWRUT

UTAH REGIONAL WEATHER ROUNDUP
NATIONAL WEATHER SERVICE SALT LAKE CITY UT
1200 AM MST MON JAN 23 2017

UTZ001>011-023>025-230800-

NORTHERN UTAH

CITY           SKY/WX    TMP DP  RH WIND       PRES   REMARKS
BRIGHAM CITY     N/A     33  31  93 S6        29.69F WCI  28
HILL AFB       LGT SNOW  32  32 100 S12       29.66F VSB 1   WCI  23
LOGAN          LGT SNOW  29  29 100 CALM      29.68F FOG
OGDEN          LGT SNOW  32  32 100 SE8       29.68F VSB 3/4 WCI  25
SALT LAKE CITY CLOUDY    38  31  76 S18       29.66F WCI  28
TOOELE VALLEY  CLOUDY    41  32  70 S21G31    29.65S
WENDOVER       CLOUDY    28  27  93 CALM      29.66F
HEBER CITY     LGT SNOW  28  28 100 CALM      29.69F
WEST JORDAN    CLOUDY    35  35 100 SE30G36   29.67F WCI  21

$$

UTZ011>015-024>027-230800-

CENTRAL/NORTHEAST UTAH

CITY           SKY/WX    TMP DP  RH WIND       PRES   REMARKS
PROVO AIRPORT  LGT RAIN  33  30  88 SE6       29.73F WCI  28
MOAB/CANYONLAN CLOUDY    34  31  88 SE5       29.84F WCI  30
DELTA          PTCLDY    34  30  86 S20       29.70F WCI  22
PRICE          FLURRIES  27  26  96 E3        29.80F
ROOSEVELT      LGT SNOW  27  23  86 CALM      29.85S
VERNAL         LGT SNOW  24  21  88 W3        29.81F VSB 1

$$

UTZ013>016-019>022-027-230800-

SOUTHERN UTAH

CITY           SKY/WX    TMP DP  RH WIND       PRES   REMARKS
BRYCE CANYON   LGT SNOW  25  23  92 SE15      29.83F FOG     WCI  13
CEDAR CITY     PTCLDY    32  29  88 SW20G29   29.74R WCI  20
MILFORD        CLEAR     35  28  75 SW23      29.72F WCI  23
ST GEORGE      CLOUDY    45  34  65 E8        29.88S
HANKSVILLE     CLOUDY    37  32  81 MISG      29.88R
BLANDING       CLOUDY    28  28 100 SE14      30.06F WCI  17

$$

REGIONAL REPORTS     COLORADO/ARIZONA

CITY           SKY/WX    TMP DP  RH WIND       PRES   REMARKS
CRAIG, CO      CLOUDY    27  20  75 CALM      29.79F
GRAND JUNCTION CLOUDY    34  29  82 SE21G26   29.86F WCI  22
RIFLE, CO      CLOUDY    29  28  96 CALM      29.86F
MONTROSE, CO   CLOUDY    29  28  96 SE8       29.92F WCI  21
CORTEZ, CO     LGT SNOW  29  27  92 S6        30.04S VSB 1   WCI  23
COLORADO CITY  CLOUDY    36  34  93 SE14G21   29.89F WCI  27
PAGE, AZ       CLOUDY    37  31  78 VRB3      29.90F
GRAND CANYON   CLOUDY    31  26  82 S18G31    29.96F WCI  19
KINGMAN, AZ    CLOUDY    45  28  51 E26G45    29.85F
FLAGSTAFF, AZ  LGT SNOW  28  26  92 SW16      30.04F VSB 1   WCI  16

$$

REGIONAL REPORTS    NEVADA/IDAHO/WYOMING

CITY           SKY/WX    TMP DP  RH WIND       PRES   REMARKS
LAS VEGAS, NV  LGT RAIN  50  41  71 S9G18     29.78R
ELY, NY        FLURRIES  30  27  88 S22G28    29.60F WCI  17
ELKO, NV       LGT SNOW  34  30  85 E3        29.55F FOG
POCATELLO, ID  LGT SNOW  32  30  92 E8        29.66F FOG     WCI  25
BURLEY, ID     CLOUDY    33  31  92 SE6       29.62F WCI  28
FORT BRIDGER,  LGT SNOW  19  19 100 CALM      29.72S VSB 3/4
EVANSTON, WY   HVY SNOW  19  15  84 MISG      29.65F VSB 1/4
ROCK SPRINGS,  CLOUDY    25  20  81 S8        29.70F WCI  16

$$




USA.gov is the U.S. government's official web portal to all federal, state and local government web resources and services.